Wind_Speed
17 17 17 17 17 18 19 20 20 19 19 18 19 20 20 20 21 20 20 21 20 20 20 20 20 20 20 21 21 20 19 19 19 19 19 19 18 18 17 17 17 17 18 19
19 19 19 18 18 19 19 20 20 20 20 20 20 20 20 20 20 20 20 20 20 20 21 21 21 21 22 22 22 22 21 20 19 19 19 19 19 19 19 19 19 18 19 20
19 19 19 19 19 19 19 19 20 20 21 20 21 20 20 20 20 20 20 20 21 21 21 22 22 22 22 22 22 21 20 20 20 20 20 19 20 20 20 20 20 20 20 20
21 20 20 18 19 19 19 19 19 20 21 21 20 20 20 20 20 21 21 21 22 22 23 23 23 23 23 22 22 21 21 21 21 20 20 20 21 21 21 22 22 22 21 21
21 21 20 18 19 19 19 19 20 20 21 21 21 21 20 20 21 22 22 22 22 23 23 23 23 23 23 22 23 22 22 21 21 22 22 22 22 22 23 23 23 23 22 22
23 22 21 19 20 20 20 20 20 21 21 22 22 22 22 22 22 23 23 23 23 23 23 23 23 23 23 23 23 23 23 23 22 23 23 23 23 23 23 23 23 23 23 23
24 24 23 21 21 21 21 21 21 22 22 22 23 24 24 24 24 24 24 25 24 24 23 23 23 23 24 23 23 23 23 23 23 23 22 23 23 23 23 23 24 24 24 24
25 25 23 22 22 22 22 22 22 23 23 23 24 24 24 24 24 24 24 25 24 24 24 23 23 23 23 23 23 23 23 23 22 23 23 23 24 24 24 24 25 25 25 25
25 24 24 23 22 22 23 23 23 23 24 24 24 24 24 24 24 25 25 25 25 24 24 24 23 23 23 23 23 23 23 23 23 23 23 24 24 24 24 24 24 24 25 25
25 24 25 25 24 24 24 24 24 24 25 25 24 24 24 25 25 25 25 25 25 25 25 25 24 24 23 23 23 22 22 23 23 23 24 24 24 24 24 24 24 24 24 24
26 25 25 25 25 25 25 25 25 25 25 25 26 25 25 26 26 26 26 26 26 26 26 25 25 24 24 23 23 23 23 23 23 24 24 24 24 24 24 24 23 23 23 23
27 27 27 25 25 26 25 25 25 26 26 26 26 26 26 26 26 27 27 26 26 26 26 26 25 25 24 23 23 23 24 25 25 25 25 25 25 24 23 23 23 24 24 24
27 27 27 26 26 27 27 27 27 27 26 27 27 27 27 26 27 27 27 27 27 27 26 26 25 25 24 24 24 24 24 25 26 26 26 25 25 24 24 24 24 25 25 26
28 28 27 27 27 27 28 28 28 27 27 27 27 27 27 27 27 27 27 27 26 26 26 26 26 25 24 24 25 25 25 25 25 25 25 25 25 25 25 25 25 26 26 27
29 29 29 28 27 27 28 28 28 27 27 27 27 28 28 27 27 27 27 27 27 27 27 27 27 26 25 25 25 25 25 25 25 25 25 25 25 25 25 26 26 27 27 27
29 29 29 29 28 28 29 29 29 28 28 27 28 28 28 28 28 28 28 29 29 28 27 27 27 27 26 26 26 26 25 25 25 25 25 25 25 25 26 26 26 26 27 27
29 29 29 29 29 29 30 30 30 29 28 28 28 28 28 28 28 28 28 28 28 28 27 27 26 26 25 26 26 26 26 26 26 26 25 25 25 25 26 26 27 27 27 27
29 29 29 29 29 29 29 29 29 29 29 28 28 28 28 28 28 28 28 28 28 28 27 26 26 26 25 25 25 25 25 25 26 27 27 27 26 26 27 26 26 27 26 26
29 29 29 29 29 29 29 29 29 29 29 29 29 29 28 28 28 28 28 28 28 27 27 27 26 26 26 26 26 26 27 27 27 27 27 27 27 27 27 27 27 28 28 28
28 29 30 30 30 30 30 29 28 28 29 29 30 30 30 30 30 29 29 29 28 28 27 27 27 27 26 26 27 27 27 27 27 27 27 27 27 28 28 28 28 28 28 28
29 29 30 30 30 30 30 29 28 28 29 30 30 30 31 31 31 30 29 29 28 28 28 28 27 27 27 27 27 27 27 27 27 27 27 27 27 28 28 28 28 28 28 28
29 30 30 30 30 30 30 30 30 29 29 30 30 30 31 31 31 30 30 29 29 29 28 28 28 29 29 28 28 28 28 27 27 27 27 27 27 26 27 27 28 28 28 28
29 29 30 30 29 29 29 29 30 30 30 30 30 30 31 30 30 30 29 29 29 29 28 28 29 29 29 29 29 28 28 28 27 27 27 26 26 26 26 27 27 27 28 28
28 29 30 30 30 30 29 28 29 29 30 30 30 31 30 30 31 31 30 29 29 29 28 29 29 29 29 28 28 28 28 28 28 27 27 26 26 26 27 27 27 27 27 28
29 29 29 30 29 29 28 28 28 28 29 30 30 31 31 31 31 31 30 30 30 29 29 29 29 29 29 28 28 28 28 28 29 28 27 26 27 27 28 28 27 27 27 27
29 29 29 29 29 29 29 28 28 29 29 30 30 31 31 32 32 32 31 30 31 31 30 30 30 29 29 29 28 28 28 28 27 27 27 27 28 28 28 28 28 28 27 28
29 29 29 29 29 30 30 29 29 29 30 30 31 31 32 32 32 32 32 31 31 31 31 30 30 30 30 29 29 29 28 28 27 27 27 28 28 29 29 29 28 27 27 27
Wind_Direction
268 269 269 270 271 272 275 278 281 284 286 289 292 293 296 298 299 298 298 297 295 294 290 285 280 277 276 274 275 274 273 273 273 271 269 267 267 267 268 270 272 270 271 273
267 267 269 268 270 271 274 276 280 283 284 286 291 294 296 298 299 299 297 296 295 295 293 289 284 279 276 274 273 273 272 271 270 269 268 265 266 267 269 271 272 271 272 273
264 266 268 267 268 270 272 274 277 279 282 286 291 294 295 296 298 298 297 295 295 294 291 289 287 285 279 275 273 272 271 269 267 267 266 266 267 269 270 270 271 271 272 272
265 265 266 269 269 271 271 273 275 277 279 284 288 292 294 296 298 299 298 296 295 294 292 290 289 287 284 278 275 273 271 268 267 266 267 267 268 270 270 271 271 270 271 272
265 266 266 265 269 273 274 273 274 277 279 282 284 287 292 296 299 300 299 298 297 295 292 290 288 286 284 280 276 275 272 269 268 268 268 268 269 269 269 271 272 271 271 273
265 267 267 269 271 273 274 273 275 278 280 282 284 286 290 294 297 298 298 298 298 297 294 291 288 286 283 280 277 275 272 270 268 268 268 268 269 270 269 271 272 272 272 274
264 267 269 271 272 272 274 277 277 279 281 282 284 287 290 293 295 296 297 297 296 295 295 293 289 285 283 280 277 276 274 271 268 267 267 269 270 272 270 270 272 273 272 273
263 266 269 271 273 274 276 278 279 279 282 284 284 286 289 292 294 295 296 295 294 293 293 293 290 287 283 281 279 277 274 271 270 269 269 270 271 272 273 271 272 275 275 274
262 266 268 270 272 276 278 279 280 281 282 285 284 285 289 292 293 294 295 293 292 290 290 290 288 286 283 282 280 277 274 272 270 270 271 271 272 272 273 273 273 274 274 273
263 264 267 269 272 275 276 278 280 281 282 284 284 286 288 290 292 294 295 294 292 291 290 289 287 285 283 282 281 277 275 273 271 271 271 271 271 271 272 273 273 272 272 271
266 267 269 271 272 274 275 277 280 282 282 282 283 284 286 289 290 292 294 295 293 291 290 288 287 286 284 282 278 276 274 274 274 274 273 271 271 271 272 272 272 271 271 271
265 267 270 272 272 273 274 276 278 279 279 281 283 286 288 288 289 291 293 294 294 292 290 289 287 285 283 282 279 276 274 274 274 275 274 273 270 269 270 271 271 271 271 271
266 268 270 272 273 273 274 275 277 279 281 280 281 284 286 287 287 289 291 292 292 291 290 288 287 286 283 281 280 278 276 275 275 274 273 270 269 268 269 270 271 272 272 271
267 269 270 271 273 273 273 275 276 278 280 281 281 282 284 286 287 288 290 290 290 290 289 288 286 285 284 282 280 279 278 276 275 273 271 271 271 269 269 270 271 271 272 272
264 267 269 271 272 273 274 276 276 277 278 280 281 282 283 286 288 288 289 289 288 288 287 286 284 284 283 281 279 278 276 275 275 273 270 270 270 269 270 270 272 273 272 273
263 266 268 270 272 273 275 276 277 276 278 280 281 283 283 285 286 288 289 288 288 288 286 284 283 282 281 280 280 278 276 274 273 272 272 270 269 270 271 272 273 273 273 273
264 267 269 269 271 272 274 275 276 277 278 279 281 282 282 284 285 287 288 288 288 287 285 283 282 282 281 280 280 279 276 274 273 274 273 272 271 271 272 273 274 274 273 273
265 267 269 269 271 272 275 277 277 277 277 278 279 281 281 283 285 287 288 288 288 287 285 282 280 279 279 279 280 279 276 275 275 275 277 275 273 273 275 274 274 274 273 273
264 267 269 270 271 273 274 276 277 276 276 277 277 278 280 282 283 285 288 289 289 287 285 281 278 277 278 278 279 280 279 277 276 276 278 277 275 274 275 274 275 275 273 274
264 267 269 271 273 273 274 274 276 277 276 276 277 278 280 281 282 284 286 288 289 287 284 281 278 277 277 277 278 280 279 278 277 277 278 277 275 274 273 273 275 276 274 275
267 268 269 271 273 274 274 274 275 275 276 277 278 279 280 281 282 283 284 285 286 285 283 280 277 276 277 278 278 279 279 278 278 279 279 277 275 273 273 273 274 276 276 276
269 269 270 270 272 273 273 274 274 275 275 277 278 279 280 281 283 283 283 283 284 284 283 281 279 277 277 277 277 277 277 277 277 278 279 277 275 273 273 274 275 276 277 278
270 270 270 271 273 274 274 274 274 274 275 276 278 279 280 281 282 282 283 283 282 283 283 282 281 279 278 278 277 276 275 275 276 277 277 276 274 274 275 276 277 278 277 277
272 272 271 271 274 275 275 275 275 275 276 277 278 279 279 280 280 281 283 283 284 284 283 283 282 279 278 278 276 275 274 275 275 274 274 274 274 275 276 278 278 278 278 278
273 273 273 273 273 275 276 276 276 276 276 276 277 278 279 280 280 280 281 281 282 283 284 284 282 279 277 276 275 275 275 275 275 274 273 273 274 275 277 278 279 280 279 279
273 274 275 274 273 274 276 276 277 277 277 277 277 278 279 279 280 280 280 280 281 282 282 282 281 279 277 276 276 275 275 276 274 272 271 273 275 275 275 277 279 279 279 280
272 272 273 274 274 275 275 276 276 277 277 278 278 279 280 280 280 280 281 281 281 281 281 281 280 277 275 275 276 276 276 274 273 273 273 274 275 274 274 275 277 278 278 280
Height
5828 5829 5828 5828 5828 5827 5826 5825 5824 5824 5822 5822 5820 5818 5816 5813 5811 5809 5807 5805 5803 5801 5799 5797 5795 5795 5794 5793 5792 5792 5791 5791 5791 5791 5791 5791 5791 5791 5791 5791 5791 5791 5791 5791
5823 5822 5822 5822 5822 5821 5821 5820 5819 5818 5817 5816 5814 5812 5810 5808 5806 5804 5802 5800 5797 5795 5793 5791 5790 5789 5788 5787 5786 5786 5785 5785 5785 5785 5785 5785 5785 5785 5785 5785 5785 5785 5785 5785
5817 5816 5816 5817 5817 5816 5815 5814 5814 5812 5812 5810 5808 5807 5805 5803 5801 5799 5796 5794 5792 5790 5788 5785 5784 5782 5781 5780 5779 5779 5779 5779 5779 5779 5779 5779 5779 5779 5779 5779 5779 5779 5779 5779
5810 5811 5810 5813 5811 5810 5809 5809 5808 5806 5805 5804 5803 5801 5799 5797 5795 5793 5791 5788 5786 5784 5781 5779 5777 5776 5774 5773 5773 5773 5773 5773 5773 5773 5773 5773 5773 5773 5773 5773 5773 5773 5773 5772
5804 5804 5804 5806 5805 5804 5803 5803 5802 5800 5799 5798 5797 5795 5793 5791 5789 5787 5784 5782 5780 5777 5775 5773 5770 5769 5767 5766 5766 5766 5766 5766 5766 5766 5766 5766 5766 5766 5766 5766 5766 5766 5765 5765
5797 5797 5798 5800 5799 5797 5797 5796 5795 5794 5793 5792 5790 5789 5788 5785 5782 5780 5778 5775 5773 5770 5768 5766 5763 5762 5760 5759 5759 5758 5759 5759 5759 5760 5759 5759 5759 5759 5759 5759 5759 5758 5758 5758
5791 5790 5791 5792 5791 5791 5791 5791 5789 5787 5786 5785 5783 5782 5780 5778 5775 5773 5771 5768 5766 5763 5761 5759 5756 5754 5753 5752 5751 5751 5751 5751 5752 5752 5752 5752 5752 5752 5751 5751 5751 5751 5751 5751
5783 5783 5786 5785 5784 5784 5783 5782 5781 5780 5779 5778 5776 5774 5773 5771 5769 5766 5764 5761 5759 5756 5754 5752 5749 5747 5746 5745 5744 5744 5743 5744 5744 5744 5744 5744 5744 5744 5743 5743 5743 5743 5743 5742
5777 5779 5778 5777 5777 5776 5776 5775 5774 5773 5772 5771 5769 5767 5765 5764 5762 5759 5757 5754 5752 5749 5747 5745 5743 5741 5739 5738 5737 5736 5736 5736 5736 5736 5736 5736 5736 5735 5735 5735 5735 5735 5734 5734
5769 5770 5770 5770 5769 5769 5768 5768 5767 5765 5764 5763 5761 5760 5758 5756 5754 5752 5749 5747 5744 5742 5740 5738 5736 5734 5732 5731 5730 5729 5729 5729 5729 5729 5728 5728 5727 5727 5727 5727 5727 5726 5726 5725
5761 5762 5762 5762 5762 5761 5760 5760 5759 5758 5756 5755 5753 5751 5750 5748 5746 5744 5742 5739 5737 5734 5732 5731 5729 5727 5725 5724 5723 5722 5722 5721 5721 5721 5720 5720 5719 5719 5719 5719 5718 5718 5718 5717
5753 5754 5753 5754 5753 5753 5752 5752 5751 5750 5749 5747 5745 5743 5742 5740 5738 5736 5734 5731 5729 5727 5725 5723 5721 5720 5718 5717 5715 5715 5714 5714 5713 5713 5712 5712 5711 5711 5711 5711 5710 5710 5709 5709
5744 5745 5745 5745 5744 5744 5743 5743 5742 5741 5740 5739 5737 5736 5734 5732 5730 5728 5726 5723 5721 5719 5717 5715 5714 5712 5711 5709 5708 5707 5706 5706 5705 5705 5704 5703 5703 5703 5703 5703 5702 5701 5701 5700
5735 5736 5736 5736 5736 5735 5734 5734 5733 5732 5731 5730 5729 5727 5725 5724 5722 5720 5718 5715 5713 5711 5710 5708 5706 5704 5703 5701 5700 5699 5698 5697 5696 5696 5695 5695 5695 5694 5694 5694 5694 5693 5692 5691
5727 5727 5727 5727 5726 5726 5725 5725 5724 5724 5723 5721 5720 5719 5717 5715 5713 5711 5709 5707 5705 5703 5702 5700 5698 5696 5695 5693 5692 5691 5690 5689 5688 5687 5687 5687 5686 5686 5685 5685 5684 5683 5683 5682
5718 5718 5718 5718 5717 5717 5716 5716 5715 5715 5714 5713 5711 5710 5708 5707 5705 5703 5700 5698 5696 5694 5693 5691 5689 5688 5686 5685 5684 5683 5682 5681 5680 5679 5679 5678 5677 5677 5676 5676 5675 5674 5673 5673
5708 5708 5708 5708 5708 5708 5707 5706 5706 5705 5704 5703 5702 5701 5699 5698 5696 5694 5692 5689 5687 5685 5684 5682 5681 5679 5678 5676 5675 5674 5674 5673 5672 5671 5670 5669 5669 5668 5667 5667 5666 5665 5664 5663
5699 5699 5698 5698 5698 5698 5698 5697 5696 5695 5695 5694 5693 5691 5690 5689 5687 5685 5683 5680 5678 5677 5675 5673 5672 5671 5669 5668 5667 5666 5665 5664 5663 5662 5661 5660 5660 5659 5658 5658 5657 5656 5655 5654
5689 5689 5689 5689 5689 5688 5688 5687 5687 5686 5685 5684 5683 5682 5681 5679 5678 5676 5674 5672 5669 5668 5666 5664 5663 5662 5661 5659 5658 5657 5656 5655 5654 5653 5652 5651 5650 5650 5649 5648 5648 5647 5646 5646
5679 5679 5679 5679 5679 5679 5678 5678 5677 5676 5675 5675 5674 5672 5671 5670 5668 5666 5664 5662 5660 5658 5656 5655 5654 5653 5652 5651 5649 5648 5647 5646 5645 5644 5643 5642 5641 5640 5640 5639 5639 5638 5637 5636
5670 5670 5670 5670 5669 5669 5668 5668 5667 5666 5666 5665 5664 5663 5661 5660 5658 5656 5655 5653 5651 5649 5647 5646 5644 5643 5642 5641 5640 5639 5638 5637 5636 5635 5634 5633 5632 5631 5630 5630 5629 5628 5627 5626
5660 5660 5660 5660 5659 5659 5658 5658 5657 5656 5656 5655 5654 5652 5651 5650 5648 5647 5645 5643 5642 5639 5638 5636 5635 5634 5632 5631 5630 5629 5628 5627 5627 5626 5624 5623 5622 5622 5621 5621 5620 5619 5618 5617
5650 5650 5650 5650 5649 5649 5648 5647 5647 5646 5646 5645 5644 5643 5641 5640 5638 5637 5636 5634 5632 5630 5628 5627 5625 5624 5622 5621 5620 5619 5618 5618 5617 5616 5616 5614 5614 5613 5613 5612 5611 5610 5609 5608
5641 5640 5640 5640 5639 5639 5638 5637 5637 5636 5636 5635 5634 5632 5631 5630 5629 5627 5625 5624 5622 5620 5619 5617 5616 5614 5612 5611 5610 5610 5609 5609 5608 5607 5607 5606 5605 5604 5604 5603 5602 5600 5599 5598
5631 5630 5630 5630 5629 5629 5628 5627 5627 5626 5625 5625 5623 5622 5621 5619 5618 5617 5615 5614 5612 5611 5609 5607 5606 5604 5603 5602 5601 5601 5600 5599 5599 5598 5597 5597 5596 5595 5595 5593 5592 5591 5590 5589
5621 5620 5620 5619 5619 5619 5618 5617 5617 5616 5615 5614 5613 5612 5611 5609 5608 5606 5605 5604 5602 5601 5599 5598 5596 5595 5594 5593 5592 5591 5591 5590 5589 5588 5588 5587 5587 5586 5585 5584 5583 5582 5581 5580
5610 5610 5609 5609 5609 5608 5608 5607 5607 5606 5605 5604 5603 5602 5600 5599 5597 5596 5594 5593 5592 5590 5589 5587 5586 5585 5584 5583 5582 5581 5581 5580 5579 5579 5578 5578 5577 5577 5576 5575 5574 5573 5572 5570